Flag for U.S.A. Weather past 2 weeks in Post Falls, Idaho, U.S.A.

61 °F


Feels Like: 61 °F
Forecast: 50 / 76 °F
Wind: 9 mph from Northeast

Location: Coeur d'Alene Weather Reporting System

Current Time: Oct 8, 2015 at 8:35:34 PM

Latest Report: Oct 8, 2015 at 7:55 PM

Visibility: 10 mi

Pressure: 30.16 "Hg (27.88 "Hg at 664m altitude)

Humidity: 77%

Dew point: 54 °F

Location of Post FallsLocation

Historic Weather in Post Falls — Graph


Post Falls temperature yesterday

Maximum temperature yesterday: 64 °F (at 10:55 AM)
Minimum temperature yesterday: 54 °F (at 12:15 AM)
Average temperature yesterday: 58 °F

Past Weeks' High & Low Weather Summary

High81 °F (Sep 25, 1:55 PM)94% (Oct 7, 7:15 PM)30.28 "Hg (Oct 7, 7:15 PM)
Low30 °F (Sep 27, 5:55 AM)10% (Sep 25, 9:15 PM)29.84 "Hg (Oct 2, 7:15 PM)
Average56 °F50%30.01 "Hg
* Reported Sep 23 7:15 PM — Oct 8 7:15 PM, Post Falls, Weather by CustomWeather, © 2015

Note: Actual official high and low records may vary slightly from our data, if they occured in-between our weather recording intervals... More about our weather records


Post Falls weather history for previous 24 hours

Time TempWeatherWind HumidityBarometerVisibility
7:15 PM
Thu, Oct 8
61 °FClear.9 mph72%30.18 "Hg10 mi
6:55 PM59 °FSunny.8 mph77%30.17 "Hg10 mi
6:35 PM61 °FSunny.10 mph77%30.17 "Hg10 mi
6:15 PM63 °FSunny.12 mph73%30.17 "Hg10 mi
5:55 PM63 °FSunny.9 mph73%30.19 "Hg10 mi
5:35 PM63 °FSunny.7 mph73%30.20 "Hg10 mi
5:15 PM64 °FSunny.9 mph73%30.20 "Hg10 mi
4:55 PM64 °FSunny.9 mph73%30.20 "Hg10 mi
4:35 PM64 °FSunny.8 mph73%30.21 "Hg10 mi
4:15 PM64 °FSunny.7 mph73%30.21 "Hg10 mi
3:55 PM66 °FSunny.8 mph68%30.21 "Hg10 mi
3:35 PM66 °FSunny.8 mph68%30.22 "Hg10 mi
2:15 PM64 °FPassing clouds.9 mph73%30.23 "Hg10 mi
1:55 PM64 °FSunny.5 mph73%30.24 "Hg10 mi
1:35 PM64 °FSunny.6 mph73%30.25 "Hg10 mi
1:15 PM64 °FSunny.5 mph73%30.25 "Hg10 mi
12:55 PM63 °FSunny.No wind77%30.26 "Hg10 mi
12:35 PM63 °FScattered clouds.6 mph77%30.26 "Hg10 mi
12:15 PM61 °FPartly sunny.5 mph83%30.26 "Hg10 mi
11:55 AM63 °FPassing clouds.6 mph77%30.26 "Hg10 mi
11:35 AM61 °FSunny.6 mph77%30.26 "Hg10 mi
11:15 AM61 °FPassing clouds.3 mph83%30.26 "Hg10 mi
10:55 AM61 °FScattered clouds.5 mph77%30.27 "Hg10 mi
10:35 AM59 °FScattered clouds.6 mph82%30.28 "Hg10 mi
10:15 AM59 °FLow clouds.6 mph82%30.28 "Hg10 mi
9:55 AM57 °FPartly sunny.6 mph88%30.28 "Hg10 mi
9:35 AM57 °FMore clouds than sun.6 mph88%30.27 "Hg10 mi
9:15 AM55 °FOvercast.7 mph94%30.27 "Hg10 mi
8:55 AM55 °FOvercast.8 mph88%30.26 "Hg10 mi
8:35 AM55 °FOvercast.7 mph88%30.26 "Hg10 mi
8:15 AM55 °FOvercast.7 mph88%30.25 "Hg10 mi
7:55 AM55 °FOvercast.7 mph88%30.25 "Hg10 mi
7:35 AM54 °FPassing clouds.5 mph94%30.25 "Hg7 mi
7:15 AM54 °FPassing clouds.7 mph94%30.24 "Hg8 mi
6:55 AM54 °FOvercast.6 mph94%30.25 "Hg10 mi
6:35 AM54 °FOvercast.5 mph94%30.24 "Hg10 mi
6:15 AM54 °FMostly cloudy.6 mph94%30.24 "Hg10 mi
5:55 AM54 °FOvercast.5 mph94%30.24 "Hg10 mi
5:35 AM54 °FOvercast.6 mph94%30.24 "Hg10 mi
5:15 AM54 °FOvercast.6 mph94%30.24 "Hg9 mi
4:55 AM54 °FMostly cloudy.5 mph94%30.24 "Hg9 mi
4:35 AM54 °FOvercast.6 mph94%30.23 "Hg8 mi
4:15 AM54 °FLow clouds.No wind94%30.24 "Hg8 mi
3:55 AM54 °FLow clouds.3 mph94%30.25 "Hg9 mi
3:35 AM54 °FLow clouds.5 mph94%30.24 "Hg10 mi
3:15 AM55 °FLow clouds.3 mph88%30.23 "Hg9 mi
2:55 AM55 °FOvercast.3 mph88%30.23 "Hg10 mi
2:35 AM55 °FOvercast.No wind88%30.24 "Hg8 mi
2:15 AM54 °FOvercast.No wind94%30.24 "Hg9 mi
1:55 AM54 °FOvercast.3 mph94%30.23 "Hg3 mi
1:35 AM54 °FMostly cloudy.3 mph94%30.24 "Hg3 mi
1:15 AM54 °FOvercast.No wind94%30.23 "Hg6 mi
12:55 AM55 °FMostly cloudy.No wind88%30.23 "Hg6 mi
12:35 AM55 °FMostly cloudy.No wind88%30.22 "Hg9 mi
12:15 AM55 °FOvercast.No wind88%30.22 "Hg10 mi
11:55 PM
Wed, Oct 7
55 °FMostly cloudy.No wind88%30.22 "Hg10 mi
11:35 PM55 °FOvercast.3 mph88%30.22 "Hg10 mi
11:15 PM55 °FOvercast.No wind88%30.21 "Hg10 mi
10:55 PM54 °FOvercast.No wind94%30.20 "Hg10 mi
10:35 PM55 °FOvercast.No wind88%30.20 "Hg10 mi
10:15 PM54 °FOvercast.3 mph94%30.20 "Hg10 mi
9:55 PM55 °FOvercast.3 mph88%30.20 "Hg10 mi
9:15 PM54 °FMostly cloudy.No wind94%30.20 "Hg5 mi
8:55 PM54 °FMostly cloudy.No wind94%30.19 "Hg4 mi
8:35 PM54 °FMostly cloudy.No wind94%30.18 "Hg3 mi
8:15 PM54 °FOvercast.No wind94%30.18 "Hg3 mi
Weather by CustomWeather, © 2015

See weather overviewHow to use our weather pages